EW5417 Weather Reports


Display with metric or nautical units.
time (UTC)temp
F
wind
direction
speed
MPH
gust
MPH
rain 1hr
in
rain 24hr
in
rain mn
in
humidity
%
barometer
mb
20181020061246 63 148 11.0 18.0 0.00 0.00 0.00 80 1023.3
20181020060347 63 156 11.0 17.0 0.00 0.00 0.00 79 1023.3
20181020055446 63 150 9.0 15.0 0.00 0.00 0.00 79 1023.3
20181020054547 63 155 8.0 12.0 0.00 0.00 0.00 79 1023.3
20181020053647 63 153 8.0 13.0 0.00 0.00 0.00 78 1023.3
20181020052747 63 155 7.0 15.0 0.00 0.00 0.00 78 1022.3
20181020051847 64 166 8.0 15.0 0.00 0.00 0.00 77 1022.3
20181020050947 64 159 9.0 13.0 0.00 0.00 0.00 75 1022.3
20181020050047 64 157 9.0 20.0 0.00 0.00 0.00 75 1022.3
20181020045147 64 161 15.0 23.0 0.00 0.00 0.00 74 1022.3
20181020044247 64 155 8.0 20.0 0.00 0.00 0.00 74 1023.3
20181020043347 64 152 10.0 21.0 0.00 0.00 0.00 75 1023.3
20181020042447 64 149 10.0 21.0 0.00 0.00 0.00 75 1023.3
20181020041547 64 155 9.0 20.0 0.00 0.00 0.00 75 1023.3
20181020040647 64 157 13.0 24.0 0.00 0.00 0.00 75 1023.3
20181020035747 64 153 12.0 19.0 0.00 0.00 0.00 75 1023.3
20181020034847 65 151 9.0 16.0 0.00 0.00 0.00 77 1024.4
20181020033947 65 159 9.0 18.0 0.00 0.00 0.00 78 1024.4
20181020033047 65 156 7.0 13.0 0.00 0.00 0.00 77 1023.3
20181020032147 65 166 7.0 13.0 0.00 0.00 0.00 78 1023.3
20181020031247 66 158 10.0 15.0 0.00 0.00 0.00 78 1024.4
20181020030347 66 169 8.0 13.0 0.00 0.00 0.00 78 1023.3
20181020025447 66 161 8.0 15.0 0.00 0.00 0.00 78 1023.3
20181020024547 66 160 5.0 18.0 0.00 0.00 0.00 79 1024.4
20181020023647 66 151 5.0 15.0 0.00 0.00 0.00 79 1024.4
20181020022747 66 167 4.0 15.0 0.00 0.00 0.00 79 1024.4
20181020021847 66 165 6.0 14.0 0.00 0.00 0.00 79 1024.4
20181020020947 67 155 7.0 11.0 0.00 0.00 0.00 79 1024.4
20181020020047 67 154 4.0 10.0 0.00 0.00 0.00 78 1024.4
20181020015147 67 158 7.0 12.0 0.00 0.00 0.00 78 1024.4
20181020014247 67 160 8.0 12.0 0.00 0.00 0.00 78 1024.4
20181020013347 67 157 6.0 12.0 0.00 0.00 0.00 78 1023.3
20181020012447 67 160 5.0 10.0 0.00 0.00 0.00 78 1023.3
20181020011547 67 149 5.0 15.0 0.00 0.00 0.00 78 1023.3
20181020010647 67 154 9.0 17.0 0.00 0.00 0.00 78 1023.3
20181020005747 67 164 5.0 20.0 0.00 0.00 0.00 78 1023.3
20181020004847 68 152 11.0 14.0 0.00 0.00 0.00 78 1023.3
20181020003947 68 153 7.0 15.0 0.00 0.00 0.00 78 1023.3
20181020003047 68 156 6.0 15.0 0.00 0.00 0.00 77 1023.3
20181020002147 68 148 8.0 18.0 0.00 0.00 0.00 78 1023.3
20181020001247 68 160 6.0 11.0 0.00 0.00 0.00 77 1023.3
20181020000347 68 158 6.0 13.0 0.00 0.00 0.00 77 1023.3
20181019235447 68 159 7.0 13.0 0.00 0.00 0.00 77 1023.3
20181019234547 69 157 5.0 10.0 0.00 0.00 0.00 78 1023.3
20181019233647 69 160 5.0 11.0 0.00 0.00 0.00 78 1023.3
20181019232747 69 167 4.0 11.0 0.00 0.00 0.00 79 1022.3
20181019231847 69 169 5.0 9.0 0.00 0.00 0.00 79 1022.3
20181019230953 69 162 4.0 11.0 0.00 0.00 0.00 79 1022.3
20181019230051 69 166 6.0 13.0 0.00 0.00 0.00 78 1022.3
20181019225148 69 158 4.0 14.0 0.00 0.00 0.00 78 1022.3
20181019224253 69 149 6.0 15.0 0.00 0.00 0.00 77 1021.2
20181019223348 69 160 6.0 15.0 0.00 0.00 0.00 77 1022.3
20181019222451 69 168 9.0 15.0 0.00 0.00 0.00 76 1022.3
20181019221548 69 159 5.0 15.0 0.00 0.00 0.00 76 1022.3
20181019220648 70 164 5.0 14.0 0.00 0.00 0.00 76 1022.3
20181019215748 70 145 8.0 15.0 0.00 0.00 0.00 75 1022.3
20181019214847 70 153 8.0 16.0 0.00 0.00 0.00 76 1021.2
20181019213948 71 164 6.0 12.0 0.00 0.00 0.00 76 1021.2
20181019213047 71 156 5.0 13.0 0.00 0.00 0.00 76 1021.2
20181019212147 71 153 7.0 15.0 0.00 0.00 0.00 76 1021.2
20181019211247 71 164 6.0 11.0 0.00 0.00 0.00 76 1021.2
20181019210347 71 159 6.0 11.0 0.00 0.00 0.00 76 1021.2
20181019205448 71 155 7.0 12.0 0.00 0.00 0.00 76 1021.2
20181019204548 72 158 7.0 13.0 0.00 0.00 0.00 76 1021.2
20181019203648 72 161 7.0 13.0 0.00 0.00 0.00 75 1021.2
20181019202748 72 157 8.0 11.0 0.00 0.00 0.00 74 1021.2
20181019201849 72 158 7.0 15.0 0.00 0.00 0.00 74 1020.1
20181019200948 72 155 8.0 19.0 0.00 0.00 0.00 73 1020.1
20181019200048 72 155 12.0 19.0 0.00 0.00 0.00 73 1020.1
20181019195148 73 153 10.0 15.0 0.00 0.00 0.00 73 1020.1
20181019194248 73 149 8.0 16.0 0.00 0.00 0.00 73 1020.1
20181019193348 73 156 8.0 19.0 0.00 0.00 0.00 72 1020.1
20181019192448 73 156 6.0 19.0 0.00 0.00 0.00 70 1020.1
20181019191548 74 162 11.0 15.0 0.00 0.00 0.00 69 1019.1
20181019190648 74 154 7.0 14.0 0.00 0.00 0.00 69 1019.1
20181019185748 75 143 9.0 15.0 0.00 0.00 0.00 68 1020.1
20181019184848 76 168 6.0 11.0 0.00 0.00 0.00 67 1020.1
20181019183948 75 163 6.0 17.0 0.00 0.00 0.00 67 1020.1
20181019183048 75 165 9.0 14.0 0.00 0.00 0.00 67 1020.1
20181019182148 76 162 10.0 15.0 0.00 0.00 0.00 65 1020.1
20181019181248 76 157 9.0 13.0 0.00 0.00 0.00 66 1020.1
20181019180348 76 159 8.0 20.0 0.00 0.00 0.00 66 1020.1
20181019175448 75 161 12.0 15.0 0.00 0.00 0.00 66 1020.1
20181019174548 76 168 9.0 17.0 0.00 0.00 0.00 66 1020.1
20181019173648 76 158 6.0 20.0 0.00 0.00 0.00 66 1020.1
20181019172748 76 160 6.0 15.0 0.00 0.00 0.00 66 1021.2
20181019171848 75 161 10.0 23.0 0.00 0.00 0.00 67 1020.1
20181019170948 75 157 10.0 22.0 0.00 0.00 0.00 66 1020.1
20181019170048 76 155 7.0 17.0 0.00 0.00 0.00 65 1021.2
20181019165148 77 156 4.0 20.0 0.00 0.00 0.00 64 1021.2
20181019164248 77 161 12.0 18.0 0.00 0.00 0.00 61 1020.1
20181019163348 78 156 11.0 19.0 0.00 0.00 0.00 59 1020.1
20181019162448 79 164 8.0 15.0 0.00 0.00 0.00 57 1020.1
20181019161548 80 167 9.0 13.0 0.00 0.00 0.00 55 1020.1
20181019160648 81 159 8.0 17.0 0.00 0.00 0.00 54 1020.1
20181019155748 81 155 11.0 17.0 0.00 0.00 0.00 53 1020.1
20181019154848 81 161 6.0 17.0 0.00 0.00 0.00 55 1021.2
20181019153948 80 162 4.0 12.0 0.00 0.00 0.00 56 1021.2
20181019153048 80 147 9.0 12.0 0.00 0.00 0.00 54 1021.2
20181019152149 80 149 10.0 16.0 0.00 0.00 0.00 54 1021.2
20181019151248 80 149 8.0 11.0 0.00 0.00 0.00 56 1021.2
20181019150348 80 145 6.0 15.0 0.00 0.00 0.00 56 1021.2
20181019145448 80 148 8.0 16.0 0.00 0.00 0.00 56 1021.2
20181019144548 79 150 9.0 12.0 0.00 0.00 0.00 56 1021.2
20181019143648 79 148 9.0 15.0 0.00 0.00 0.00 57 1021.2
20181019142748 80 163 5.0 23.0 0.00 0.00 0.00 59 1021.2
20181019141848 78 162 11.0 15.0 0.00 0.00 0.00 61 1021.2
20181019140948 78 174 8.0 11.0 0.00 0.00 0.00 60 1021.2
20181019140048 79 163 5.0 9.0 0.00 0.00 0.00 60 1021.2
20181019135148 78 166 6.0 15.0 0.00 0.00 0.00 62 1021.2
20181019134249 77 170 9.0 13.0 0.00 0.00 0.00 62 1021.2
20181019133348 78 175 5.0 15.0 0.00 0.00 0.00 62 1021.2
20181019132450 77 163 6.0 15.0 0.00 0.00 0.00 62 1021.2
20181019131552 78 161 7.0 15.0 0.00 0.00 0.00 61 1020.1
20181019130650 79 171 6.0 12.0 0.00 0.00 0.00 62 1020.1
20181019125752 78 169 7.0 9.0 0.00 0.00 0.00 61 1020.1
20181019124854 78 155 4.0 17.0 0.00 0.00 0.00 62 1021.2
20181019123949 77 153 8.0 15.0 0.00 0.00 0.00 62 1021.2
20181019123052 78 168 7.0 15.0 0.00 0.00 0.00 59 1021.2
20181019122153 79 164 6.0 12.0 0.00 0.00 0.00 58 1021.2
20181019121254 78 166 7.0 12.0 0.00 0.00 0.00 60 1020.1
20181019120351 79 161 7.0 13.0 0.00 0.00 0.00 58 1021.2
20181019115452 79 168 6.0 11.0 0.00 0.00 0.00 59 1021.2
20181019114549 78 163 4.0 15.0 0.00 0.00 0.00 62 1021.2
20181019113648 76 172 6.0 12.0 0.00 0.00 0.00 65 1021.2
20181019112748 76 164 4.0 10.0 0.00 0.00 0.00 65 1020.1
20181019111848 76 162 2.0 12.0 0.00 0.00 0.00 67 1020.1
20181019110948 76 166 5.0 9.0 0.00 0.00 0.00 66 1020.1
20181019110051 76 162 1.0 6.0 0.00 0.00 0.00 68 1019.1
20181019105153 75 151 3.0 6.0 0.00 0.00 0.00 72 1019.1
20181019104251 74 150 4.0 6.0 0.00 0.00 0.00 75 1020.1
20181019103354 73 157 3.0 5.0 0.00 0.00 0.00 76 1020.1
20181019102451 72 122 2.0 4.0 0.00 0.00 0.00 78 1020.1
20181019101553 72 153 2.0 6.0 0.00 0.00 0.00 79 1020.1
20181019100652 71 163 2.0 5.0 0.00 0.00 0.00 80 1020.1
20181019095752 71 160 2.0 7.0 0.00 0.00 0.00 80 1019.1
20181019094852 71 164 0.0 6.0 0.00 0.00 0.00 81 1019.1
20181019093953 71 161 3.0 4.0 0.00 0.00 0.00 81 1019.1
20181019093049 70 148 0.0 6.0 0.00 0.00 0.00 83 1019.1
20181019092149 70 158 3.0 6.0 0.00 0.00 0.00 85 1019.1
20181019091249 70 158 3.0 4.0 0.00 0.00 0.00 87 1019.1
20181019090349 69 0 0.0 0.0 0.00 0.00 0.00 88 1018.0
20181019085449 69 192 0.0 2.0 0.00 0.00 0.00 87 1018.0
20181019084549 69 197 0.0 2.0 0.00 0.00 0.00 87 1019.1
20181019083649 69 172 0.0 4.0 0.00 0.00 0.00 87 1019.1
20181019082749 70 164 0.0 2.0 0.00 0.00 0.00 87 1018.0
20181019080949 70 186 2.0 6.0 0.00 0.00 0.00 87 1018.0
20181019080049 70 185 1.0 4.0 0.00 0.00 0.00 88 1018.0
20181019075149 70 175 0.0 3.0 0.00 0.00 0.00 90 1018.0
20181019074249 70 168 0.0 4.0 0.00 0.00 0.00 90 1018.0
20181019073349 70 191 1.0 3.0 0.00 0.00 0.00 91 1018.0
20181019072449 70 0 0.0 0.0 0.00 0.00 0.00 91 1018.0
20181019071549 70 203 0.0 2.0 0.00 0.00 0.00 91 1018.0
20181019070649 70 196 0.0 3.0 0.00 0.00 0.00 91 1018.0
20181019065749 70 198 1.0 2.0 0.00 0.00 0.00 91 1018.0
20181019064849 70 0 0.0 0.0 0.00 0.00 0.00 91 1017.0
20181019063949 70 225 0.0 2.0 0.00 0.00 0.00 91 1017.0
20181019063049 70 167 0.0 3.0 0.00 0.00 0.00 91 1017.0
20181019062149 70 189 1.0 3.0 0.00 0.00 0.00 92 1017.0